Cagliari, Italy

6:20 AM CEST on May 25, 2017 (GMT +0200)
Elmas Mil

Weather History for LIEE - October, 2013

Change the Weather History Date:

Wednesday, October 23, 2013

  Actual Average Record
Temperature  
Mean Temperature 73 °F -  
Max Temperature 77 °F 67 °F 80 °F (2004)
Min Temperature 69 °F 51 °F 42 °F (2007)
Cooling Degree Days 8    
Growing Degree Days 23 (Base 50)    
Moisture  
Dew Point 68 °F    
Average Humidity 85    
Maximum Humidity 94    
Minimum Humidity 74    
Precipitation  
Precipitation 0.00 in 0.07 in - ()
Sea Level Pressure  
Sea Level Pressure 30.06 in    
Wind  
Wind Speed 13 mph ()    
Max Wind Speed 20 mph    
Max Gust Speed -    
Visibility 6.1 miles    
Events      
Averages and records for this station are not official NWS values.
T = Trace of Precipitation, MM = Missing Value Source: Averaged Metar Reports

Daily Weather History Graph

Daily Weather History Graph

Search for Another Location

Airport or City:

Trip Planner

Search our weather history database for the weather conditions in past years. The results will help you decide how hot, cold, wet, or windy it might be!

Date:

Astronomy

Oct. 23, 2013 Rise Set
Actual Time 7:41 AM CEST 6:33 PM CEST
Civil Twilight 7:14 AM CEST 7:01 PM CEST
Nautical Twilight 6:43 AM CEST 7:32 PM CEST
Astronomical Twilight 6:12 AM CEST 8:03 PM CEST
Moon 9:51 PM CEST (10/23) 11:44 AM CEST (10/23)
Length of Visible Light 11h 46m
Length of Day
10h 51m
Waning Gibbous, 81% of the Moon is Illuminated
Oct 23
Waning Gibbous
Oct 27
Last Quarter
Nov 3
New
Nov 10
First Quarter
Nov 17
Full

Hourly Weather History & Observations

Time (CEST) Temp. Dew Point Humidity Pressure Visibility Wind Dir Wind Speed Gust Speed Precip Events Conditions
12:20 AM 73.4 °F 69.8 °F 88% 30.09 in - SE 16.1 mph - N/A   Clear
12:50 AM 73.4 °F 69.8 °F 88% 30.09 in - SE 4.6 mph - N/A   Clear
1:20 AM 73.4 °F 69.8 °F 88% 30.09 in 6.2 mi SE 17.3 mph - N/A   Partly Cloudy
1:50 AM 71.6 °F 69.8 °F 94% 30.09 in 6.2 mi SE 15.0 mph - N/A   Partly Cloudy
2:20 AM 71.6 °F 69.8 °F 94% 30.09 in 6.2 mi SE 15.0 mph - N/A   Partly Cloudy
2:50 AM 71.6 °F 69.8 °F 94% 30.09 in 6.2 mi SE 15.0 mph - N/A   Partly Cloudy
3:20 AM 71.6 °F 69.8 °F 94% 30.06 in 6.2 mi SE 15.0 mph - N/A   Partly Cloudy
4:20 AM 71.6 °F 69.8 °F 94% 30.06 in 6.2 mi SE 15.0 mph - N/A   Partly Cloudy
4:50 AM 71.6 °F 68.0 °F 88% 30.06 in 6.2 mi SE 15.0 mph - N/A   Partly Cloudy
5:20 AM 71.6 °F 68.0 °F 88% 30.06 in 6.2 mi SE 15.0 mph - N/A   Partly Cloudy
5:50 AM 71.6 °F 68.0 °F 88% 30.06 in 6.2 mi SE 16.1 mph - N/A   Partly Cloudy
6:20 AM 71.6 °F 68.0 °F 88% 30.04 in - SE 15.0 mph - N/A   Clear
6:50 AM 71.6 °F 68.0 °F 88% 30.04 in 6.2 mi SE 15.0 mph - N/A   Partly Cloudy
7:20 AM 71.6 °F 68.0 °F 88% 30.04 in 6.2 mi SE 16.1 mph - N/A   Partly Cloudy
7:50 AM 71.6 °F 68.0 °F 88% 30.04 in 6.2 mi SE 15.0 mph - N/A   Partly Cloudy
8:20 AM 71.6 °F 68.0 °F 88% 30.06 in - SE 16.1 mph - N/A   Clear
8:50 AM 71.6 °F 68.0 °F 88% 30.06 in - SE 16.1 mph - N/A   Clear
9:20 AM 73.4 °F 68.0 °F 83% 30.06 in - SE 18.4 mph - N/A   Clear
9:50 AM 75.2 °F 68.0 °F 78% 30.06 in 6.2 mi SE 18.4 mph - N/A   Partly Cloudy
10:20 AM 73.4 °F 66.2 °F 78% 30.06 in 6.2 mi SE 19.6 mph - N/A   Partly Cloudy
10:50 AM 75.2 °F 68.0 °F 78% 30.06 in 6.2 mi SE 18.4 mph - N/A   Partly Cloudy
11:20 AM 75.2 °F 68.0 °F 78% 30.06 in 6.2 mi SE 17.3 mph - N/A   Partly Cloudy
11:50 AM 75.2 °F 68.0 °F 78% 30.09 in 6.2 mi SE 17.3 mph - N/A   Partly Cloudy
12:20 PM 75.2 °F 68.0 °F 78% 30.09 in 6.2 mi SE 18.4 mph - N/A   Partly Cloudy
12:50 PM 75.2 °F 68.0 °F 78% 30.06 in 6.2 mi SE 17.3 mph - N/A   Partly Cloudy
1:20 PM 77.0 °F 68.0 °F 74% 30.06 in 6.2 mi SE 18.4 mph - N/A   Partly Cloudy
1:50 PM 75.2 °F 68.0 °F 78% 30.06 in 6.2 mi SE 17.3 mph - N/A   Partly Cloudy
2:20 PM 75.2 °F 68.0 °F 78% 30.06 in 6.2 mi SE 17.3 mph - N/A   Partly Cloudy
2:50 PM 75.2 °F 68.0 °F 78% 30.04 in 6.2 mi SE 15.0 mph - N/A   Partly Cloudy
3:20 PM 75.2 °F 68.0 °F 78% 30.04 in 6.2 mi SE 16.1 mph - N/A   Partly Cloudy
3:50 PM 77.0 °F 68.0 °F 74% 30.04 in 6.2 mi SE 15.0 mph - N/A   Partly Cloudy
4:20 PM 77.0 °F 68.0 °F 74% 30.04 in 6.2 mi SE 15.0 mph - N/A   Partly Cloudy
4:50 PM 75.2 °F 68.0 °F 78% 30.04 in 6.2 mi SE 16.1 mph - N/A   Partly Cloudy
5:20 PM 75.2 °F 68.0 °F 78% 30.04 in 6.2 mi SE 13.8 mph - N/A   Partly Cloudy
5:50 PM 73.4 °F 68.0 °F 83% 30.04 in 6.2 mi SE 12.7 mph - N/A   Partly Cloudy
6:20 PM 73.4 °F 68.0 °F 83% 30.04 in 6.2 mi SE 9.2 mph - N/A   Partly Cloudy
6:50 PM 73.4 °F 68.0 °F 83% 30.04 in - SE 9.2 mph - N/A   Clear
7:20 PM 73.4 °F 68.0 °F 83% 30.04 in 5.6 mi SE 8.1 mph - N/A   Unknown
7:50 PM 73.4 °F 68.0 °F 83% 30.06 in 5.6 mi SE 6.9 mph - N/A   Partly Cloudy
8:20 PM 73.4 °F 69.8 °F 88% 30.06 in 5.6 mi SE 5.8 mph - N/A   Partly Cloudy
8:50 PM 73.4 °F 69.8 °F 88% 30.06 in 6.2 mi SE 5.8 mph - N/A   Partly Cloudy
9:20 PM 71.6 °F 69.8 °F 94% 30.06 in 6.2 mi SE 3.5 mph - N/A   Partly Cloudy
9:50 PM 71.6 °F 69.8 °F 94% 30.06 in 6.2 mi SSE 3.5 mph - N/A   Partly Cloudy
10:20 PM 71.6 °F 69.8 °F 94% 30.06 in 6.2 mi South 2.3 mph - N/A   Partly Cloudy
10:50 PM 71.6 °F 69.8 °F 94% 30.06 in 5.6 mi Variable 2.3 mph - N/A   Partly Cloudy
11:20 PM 69.8 °F 68.0 °F 94% 30.06 in 5.0 mi NNW 4.6 mph - N/A   Partly Cloudy
11:50 PM 69.8 °F 68.0 °F 94% 30.06 in 5.0 mi NNW 3.5 mph - N/A   Partly Cloudy